Location: Oroua River
(40.4333°S, 175.4333°E)
Time: 14:57:38
(UTC+00:00)

SL-4 R/B - Pass Details

Date: 03 February 2023
Orbit: 423 x 638 km, 51.6° (Epoch: 22 March)

Event Time Altitude Azimuth Distance (km) Brightness Sun altitude
Exits shadow 14:29:45 32° 73° (ENE) 1,126 3.6 -26.9°
Drops below altitude 10° 14:33:03 10° 112° (ESE) 2,044 5.6 -26.5°
Enters shadow 15:29:16 -69° 305° (NW) 12,349 8.8 -19.8°
Maximum altitude 16:08:05 50° 210° (SSW) 829 2.9 -14.2°
Sets 16:14:59 0° 128° (SE) 2,901 7.8 -13.1°
